Time,TemperatureF,DewpointF,PressureIn,WindDirection,WindDirectionDegrees,WindSpeedMPH,WindSpeedGustMPH,Humidity,HourlyPrecipIn,Conditions,Clouds,dailyrainin,SoftwareType,DateUTC
2013-11-16 00:13:00,72.0,67.0,30.09,East,82,3.0,7.0,84,-99.99,,,-99.99,,2013-11-16 05:13:00,
2013-11-16 00:53:00,72.0,67.0,30.06,ENE,64,4.0,8.0,85,-99.99,,,-99.99,,2013-11-16 05:53:00,
2013-11-16 01:13:00,72.0,68.0,30.06,NE,51,3.0,6.0,85,-99.99,,,-99.99,,2013-11-16 06:13:00,
2013-11-16 02:11:00,71.0,67.0,30.07,NE,42,4.0,7.0,87,-99.99,,,-99.99,,2013-11-16 07:11:00,
2013-11-16 02:30:00,71.0,66.0,30.05,ENE,63,4.0,7.0,86,-99.99,,,-99.99,,2013-11-16 07:30:00,
2013-11-16 02:42:00,71.0,67.0,30.05,NE,52,4.0,7.0,87,-99.99,,,-99.99,,2013-11-16 07:42:00,
2013-11-16 02:52:00,71.0,67.0,30.05,NE,52,4.0,7.0,87,-99.99,,,-99.99,,2013-11-16 07:52:00,
2013-11-16 03:12:00,71.0,67.0,30.05,NE,46,4.0,7.0,86,-99.99,,,-99.99,,2013-11-16 08:12:00,
2013-11-16 03:22:00,71.0,66.0,30.05,ENE,63,4.0,7.0,86,-99.99,,,-99.99,,2013-11-16 08:22:00,
2013-11-16 03:30:00,70.0,66.0,30.04,NE,49,3.0,6.0,86,-99.99,,,-99.99,,2013-11-16 08:30:00,
2013-11-16 03:52:00,70.0,66.0,30.04,NE,44,4.0,7.0,86,-99.99,,,-99.99,,2013-11-16 08:52:00,
2013-11-16 04:02:00,70.0,66.0,30.04,NE,44,4.0,7.0,86,-99.99,,,-99.99,,2013-11-16 09:02:00,
2013-11-16 04:11:00,70.0,66.0,30.04,NE,44,4.0,7.0,86,-99.99,,,-99.99,,2013-11-16 09:11:00,
2013-11-16 04:22:00,70.0,66.0,30.04,NE,49,3.0,6.0,86,-99.99,,,-99.99,,2013-11-16 09:22:00,
2013-11-16 04:53:00,70.0,66.0,30.03,ENE,64,3.0,7.0,86,-99.99,,,-99.99,,2013-11-16 09:53:00,
2013-11-16 05:03:00,70.0,66.0,30.03,ENE,64,3.0,7.0,86,-99.99,,,-99.99,,2013-11-16 10:03:00,
2013-11-16 05:13:00,70.0,66.0,30.03,ENE,64,3.0,7.0,86,-99.99,,,-99.99,,2013-11-16 10:13:00,
2013-11-16 05:23:00,70.0,66.0,30.03,East,80,3.0,7.0,86,-99.99,,,-99.99,,2013-11-16 10:23:00,
2013-11-16 05:43:00,70.0,66.0,30.03,East,91,3.0,5.0,86,-99.99,,,-99.99,,2013-11-16 10:43:00,
2013-11-16 05:52:00,70.0,66.0,30.03,East,91,3.0,5.0,86,-99.99,,,-99.99,,2013-11-16 10:52:00,
2013-11-16 06:12:00,70.0,66.0,30.03,East,84,3.0,5.0,88,-99.99,,,-99.99,,2013-11-16 11:12:00,
2013-11-16 06:30:00,70.0,67.0,30.05,ENE,71,3.0,6.0,91,-99.99,,,-99.99,,2013-11-16 11:30:00,
2013-11-16 06:42:00,70.0,67.0,30.04,ENE,70,3.0,5.0,88,-99.99,,,-99.99,,2013-11-16 11:42:00,
2013-11-16 06:53:00,70.0,67.0,30.04,ENE,70,3.0,5.0,88,-99.99,,,-99.99,,2013-11-16 11:53:00,
2013-11-16 07:12:00,70.0,67.0,30.04,East,87,3.0,7.0,89,-99.99,,,-99.99,,2013-11-16 12:12:00,
2013-11-16 07:22:00,70.0,67.0,30.05,ENE,71,3.0,6.0,91,-99.99,,,-99.99,,2013-11-16 12:22:00,
2013-11-16 07:52:00,69.0,67.0,30.06,ENE,67,2.0,3.0,94,-99.99,,,-99.99,,2013-11-16 12:52:00,
2013-11-16 08:22:00,70.0,68.0,30.06,ENE,69,3.0,6.0,95,-99.99,,,-99.99,,2013-11-16 13:22:00,
2013-11-16 08:30:00,72.0,69.0,30.08,East,89,4.0,8.0,90,-99.99,,,-99.99,,2013-11-16 13:30:00,
2013-11-16 08:32:00,70.0,68.0,30.06,ENE,69,3.0,6.0,95,-99.99,,,-99.99,,2013-11-16 13:32:00,
2013-11-16 08:52:00,70.0,68.0,30.07,ENE,70,3.0,7.0,94,-99.99,,,-99.99,,2013-11-16 13:52:00,
2013-11-16 09:11:00,72.0,69.0,30.08,East,89,4.0,8.0,90,-99.99,,,-99.99,,2013-11-16 14:11:00,
2013-11-16 09:22:00,72.0,69.0,30.08,East,89,4.0,8.0,90,-99.99,,,-99.99,,2013-11-16 14:22:00,
2013-11-16 10:11:00,74.0,70.0,30.09,East,87,3.0,7.0,86,-99.99,,,-99.99,,2013-11-16 15:11:00,
2013-11-16 10:22:00,74.0,70.0,30.09,East,97,3.0,6.0,85,-99.99,,,-99.99,,2013-11-16 15:22:00,
2013-11-16 10:54:00,77.0,70.0,30.10,SE,132,7.0,11.0,77,-99.99,,,-99.99,,2013-11-16 15:54:00,
2013-11-16 11:03:00,77.0,70.0,30.10,SE,132,7.0,11.0,77,-99.99,,,-99.99,,2013-11-16 16:03:00,
2013-11-16 11:13:00,77.0,70.0,30.10,SE,132,7.0,11.0,77,-99.99,,,-99.99,,2013-11-16 16:13:00,
2013-11-16 11:23:00,79.0,69.0,30.10,SE,144,8.0,15.0,72,-99.99,,,-99.99,,2013-11-16 16:23:00,
2013-11-16 11:33:00,79.0,69.0,30.10,SE,144,8.0,15.0,72,-99.99,,,-99.99,,2013-11-16 16:33:00,
2013-11-16 11:43:00,79.0,69.0,30.10,SE,144,8.0,15.0,72,-99.99,,,-99.99,,2013-11-16 16:43:00,
2013-11-16 11:53:00,79.0,69.0,30.10,SE,144,8.0,15.0,72,-99.99,,,-99.99,,2013-11-16 16:53:00,
2013-11-16 12:13:00,79.0,69.0,30.09,SE,138,9.0,15.0,71,-99.99,,,-99.99,,2013-11-16 17:13:00,
2013-11-16 12:23:00,79.0,69.0,30.08,SE,128,8.0,18.0,70,-99.99,,,-99.99,,2013-11-16 17:23:00,
2013-11-16 12:30:00,81.0,69.0,30.07,East,93,8.0,13.0,66,-99.99,,,-99.99,,2013-11-16 17:30:00,
2013-11-16 12:43:00,80.0,69.0,30.08,ESE,108,8.0,15.0,68,-99.99,,,-99.99,,2013-11-16 17:43:00,
2013-11-16 12:52:00,80.0,69.0,30.08,ESE,108,8.0,15.0,68,-99.99,,,-99.99,,2013-11-16 17:52:00,
2013-11-16 13:12:00,81.0,69.0,30.07,ESE,113,7.0,13.0,67,-99.99,,,-99.99,,2013-11-16 18:12:00,
2013-11-16 13:24:00,81.0,69.0,30.07,East,93,8.0,13.0,66,-99.99,,,-99.99,,2013-11-16 18:24:00,
2013-11-16 13:52:00,81.0,70.0,30.05,East,90,7.0,15.0,68,-99.99,,,-99.99,,2013-11-16 18:52:00,
2013-11-16 14:02:00,81.0,70.0,30.05,East,90,7.0,15.0,68,-99.99,,,-99.99,,2013-11-16 19:02:00,
2013-11-16 14:22:00,82.0,71.0,30.04,East,97,8.0,14.0,68,-99.99,,,-99.99,,2013-11-16 19:22:00,
2013-11-16 14:32:00,82.0,71.0,30.04,East,97,8.0,14.0,68,-99.99,,,-99.99,,2013-11-16 19:32:00,
2013-11-16 14:53:00,81.0,70.0,30.03,East,81,7.0,13.0,69,-99.99,,,-99.99,,2013-11-16 19:53:00,
2013-11-16 15:12:00,80.0,68.0,30.02,ENE,73,7.0,14.0,67,-99.99,,,-99.99,,2013-11-16 20:12:00,
2013-11-16 15:22:00,80.0,68.0,30.02,ENE,73,7.0,14.0,67,-99.99,,,-99.99,,2013-11-16 20:22:00,
2013-11-16 15:32:00,80.0,68.0,30.02,ENE,73,7.0,14.0,67,-99.99,,,-99.99,,2013-11-16 20:32:00,
2013-11-16 16:12:00,79.0,66.0,30.02,ENE,69,5.0,11.0,63,-99.99,,,-99.99,,2013-11-16 21:12:00,
2013-11-16 16:22:00,77.0,66.0,30.03,ENE,60,6.0,11.0,67,-99.99,,,-99.99,,2013-11-16 21:22:00,
2013-11-16 16:34:00,77.0,66.0,30.03,ENE,60,6.0,11.0,67,-99.99,,,-99.99,,2013-11-16 21:34:00,
2013-11-16 16:54:00,77.0,66.0,30.04,ENE,65,5.0,11.0,67,-99.99,,,-99.99,,2013-11-16 21:54:00,
2013-11-16 17:04:00,77.0,66.0,30.04,ENE,65,5.0,11.0,67,-99.99,,,-99.99,,2013-11-16 22:04:00,
2013-11-16 17:13:00,77.0,66.0,30.04,ENE,65,5.0,11.0,67,-99.99,,,-99.99,,2013-11-16 22:13:00,
2013-11-16 17:24:00,77.0,66.0,30.04,NE,55,6.0,11.0,68,-99.99,,,-99.99,,2013-11-16 22:24:00,
2013-11-16 17:35:00,77.0,66.0,30.04,NE,55,6.0,11.0,68,-99.99,,,-99.99,,2013-11-16 22:35:00,
2013-11-16 17:53:00,76.0,65.0,30.03,ENE,58,7.0,12.0,67,-99.99,,,-99.99,,2013-11-16 22:53:00,
2013-11-16 18:13:00,75.0,63.0,30.03,ENE,69,6.0,10.0,66,-99.99,,,-99.99,,2013-11-16 23:13:00,
2013-11-16 18:22:00,73.0,63.0,30.04,ENE,78,5.0,12.0,70,-99.99,,,-99.99,,2013-11-16 23:22:00,
2013-11-16 18:43:00,72.0,63.0,30.04,ENE,64,4.0,7.0,72,-99.99,,,-99.99,,2013-11-16 23:43:00,
2013-11-16 18:53:00,72.0,63.0,30.04,ENE,64,4.0,7.0,72,-99.99,,,-99.99,,2013-11-16 23:53:00,
2013-11-16 19:12:00,72.0,63.0,30.04,NE,53,4.0,7.0,74,-99.99,,,-99.99,,2013-11-17 00:12:00,
2013-11-16 19:42:00,72.0,63.0,30.05,ENE,71,4.0,8.0,75,-99.99,,,-99.99,,2013-11-17 00:42:00,
2013-11-16 19:52:00,72.0,63.0,30.05,ENE,71,4.0,8.0,75,-99.99,,,-99.99,,2013-11-17 00:52:00,
2013-11-16 20:12:00,71.0,64.0,30.06,ENE,77,4.0,8.0,75,-99.99,,,-99.99,,2013-11-17 01:12:00,
2013-11-16 20:22:00,71.0,64.0,30.06,ENE,69,4.0,8.0,77,-99.99,,,-99.99,,2013-11-17 01:22:00,
2013-11-16 20:32:00,71.0,64.0,30.06,ENE,69,4.0,8.0,77,-99.99,,,-99.99,,2013-11-17 01:32:00,
2013-11-16 20:52:00,71.0,64.0,30.07,ENE,65,3.0,7.0,78,-99.99,,,-99.99,,2013-11-17 01:52:00,
2013-11-16 21:22:00,71.0,65.0,30.07,East,84,4.0,8.0,81,-99.99,,,-99.99,,2013-11-17 02:22:00,
2013-11-16 21:32:00,71.0,65.0,30.07,East,84,4.0,8.0,81,-99.99,,,-99.99,,2013-11-17 02:32:00,
2013-11-16 21:52:00,71.0,65.0,30.08,East,82,4.0,8.0,80,-99.99,,,-99.99,,2013-11-17 02:52:00,
2013-11-16 22:12:00,71.0,65.0,30.08,ENE,78,3.0,7.0,81,-99.99,,,-99.99,,2013-11-17 03:12:00,
2013-11-16 22:22:00,71.0,65.0,30.08,ENE,78,3.0,7.0,81,-99.99,,,-99.99,,2013-11-17 03:22:00,
2013-11-16 22:34:00,71.0,65.0,30.08,ENE,78,3.0,7.0,81,-99.99,,,-99.99,,2013-11-17 03:34:00,
2013-11-16 23:03:00,-999.0,-99.9,30.07,East,79,3.0,6.0,-999,-99.99,,,-99.99,,2013-11-17 04:03:00,
2013-11-16 23:14:00,70.0,65.0,30.07,East,79,3.0,6.0,83,-99.99,,,-99.99,,2013-11-17 04:14:00,
2013-11-16 23:24:00,70.0,65.0,30.08,NE,41,3.0,5.0,85,-99.99,,,-99.99,,2013-11-17 04:24:00,
2013-11-16 23:35:00,70.0,65.0,30.08,NE,41,3.0,5.0,85,-99.99,,,-99.99,,2013-11-17 04:35:00,
2013-11-16 23:53:00,69.0,65.0,30.08,NE,51,2.0,3.0,88,-99.99,,,-99.99,,2013-11-17 04:53:00,